This is the latest recevied weather packets stored in our database for station/object M0UPS-13. If no packets are shown the sender has not sent any weather packets the latest 10 day(s).
| Time | Temp. | Humidity | Pressure | Rain* | Wind** | Luminosity | Snow |
|---|---|---|---|---|---|---|---|
| 1778077802 | 13.33° C | 56% | 1013.3 hPa | 0 mm | - | 94 W/m² | - |
| 1778077502 | 13.33° C | 58% | 1013.6 hPa | 0 mm | - | 91 W/m² | - |
| 1778077202 | 13.89° C | 54% | 1013.4 hPa | 0 mm | - | 138 W/m² | - |
| 1778076903 | 14.44° C | 53% | 1013.3 hPa | 0 mm | - | 167 W/m² | - |
| 1778076603 | 15° C | 52% | 1013.4 hPa | 0 mm | - | 229 W/m² | - |
| 1778076302 | 15° C | 52% | 1013.2 hPa | 0 mm | - | 297 W/m² | - |
| 1778076002 | 15° C | 50% | 1013.4 hPa | 0 mm | - | 293 W/m² | - |
| 1778075702 | 15° C | 51% | 1013.6 hPa | 0 mm | - | 262 W/m² | - |
| 1778075402 | 15° C | 52% | 1013.4 hPa | 0 mm | - | 409 W/m² | - |
| 1778075102 | 15° C | 51% | 1013.5 hPa | 0 mm | - | 577 W/m² | - |
| 1778074802 | 15° C | 51% | 1013.3 hPa | 0 mm | - | 697 W/m² | - |
| 1778074503 | 14.44° C | 55% | 1013.4 hPa | 0 mm | - | 880 W/m² | - |
| 1778074202 | 13.89° C | 55% | 1013.6 hPa | 0 mm | - | 311 W/m² | - |
| 1778073902 | 13.89° C | 55% | 1013.5 hPa | 0 mm | - | 263 W/m² | - |
| 1778073603 | 13.89° C | 56% | 1013.3 hPa | 0 mm | - | 243 W/m² | - |
| 1778073303 | 13.89° C | 56% | 1013.5 hPa | 0 mm | - | 175 W/m² | - |
| 1778073005 | 14.44° C | 55% | 1013.4 hPa | 0 mm | - | 150 W/m² | - |
| 1778072703 | 14.44° C | 53% | 1013.4 hPa | 0 mm | - | 154 W/m² | - |
| 1778072402 | 15.56° C | 50% | 1013.2 hPa | 0 mm | - | 266 W/m² | - |
| 1778072102 | 15.56° C | 47% | 1013.3 hPa | 0 mm | - | 228 W/m² | - |
| 1778071802 | 16.67° C | 47% | 1013.4 hPa | 0 mm | - | 221 W/m² | - |
| 1778071502 | 17.22° C | 47% | 1013.2 hPa | 0 mm | - | 841 W/m² | - |
| 1778071202 | 15.56° C | 49% | 1013.3 hPa | 0 mm | - | 792 W/m² | - |
| 1778070903 | 15.56° C | 51% | 1013.4 hPa | 0 mm | - | 720 W/m² | - |
| 1778070602 | 16.67° C | 47% | 1013.3 hPa | 0 mm | - | 218 W/m² | - |
* Rain latest hour (hover to see other rain measurements)
** Current wind speed in m/s (hover to see current wind gust speed)